GW6453 Weather Reports


Display with metric or nautical units.
time (UTC)temp
F
wind
direction
speed
MPH
gust
MPH
rain 1hr
in
rain 24hr
in
rain mn
in
humidity
%
barometer
mb
20260505081731 58 305 1.0 2.0 0.00 0.00 0.00 74 1016.0
20260505081232 58 279 2.0 3.0 0.00 0.00 0.00 74 1016.0
20260505080732 59 272 0.0 2.0 0.00 0.00 0.00 74 1016.0
20260505080233 59 269 1.0 3.0 0.00 0.00 0.00 74 1016.0
20260505075731 59 276 1.0 2.0 0.00 0.00 0.00 74 1016.0
20260505075232 59 284 2.0 3.0 0.00 0.00 0.00 74 1016.0
20260505074731 59 271 0.0 2.0 0.00 0.00 0.00 74 1016.0
20260505074231 59 289 0.0 2.0 0.00 0.00 0.00 74 1015.0
20260505073731 59 278 3.0 4.0 0.00 0.00 0.00 74 1015.0
20260505073233 59 0 0.0 0.0 0.00 0.00 0.00 74 1015.0
20260505072731 59 72 0.0 1.0 0.00 0.00 0.00 73 1015.0
20260505072231 59 277 1.0 2.0 0.00 0.00 0.00 72 1015.0
20260505071732 60 264 1.0 2.0 0.00 0.00 0.00 72 1015.0
20260505071232 60 287 1.0 2.0 0.00 0.00 0.00 72 1015.0
20260505070732 60 287 1.0 2.0 0.00 0.00 0.00 72 1015.0
20260505070232 60 255 0.0 1.0 0.00 0.00 0.00 71 1015.0
20260505065732 60 0 0.0 0.0 0.00 0.00 0.00 71 1015.0
20260505065231 61 302 2.0 4.0 0.00 0.00 0.00 70 1015.0
20260505064731 61 279 0.0 2.0 0.00 0.00 0.00 70 1015.0
20260505064231 61 282 0.0 3.0 0.00 0.00 0.00 70 1015.0
20260505063732 61 279 1.0 2.0 0.00 0.00 0.00 69 1015.0
20260505063232 62 253 1.0 3.0 0.00 0.00 0.00 68 1015.0
20260505062732 62 260 1.0 3.0 0.00 0.00 0.00 68 1015.0
20260505062231 62 284 3.0 5.0 0.00 0.00 0.00 68 1015.0
20260505061731 62 307 1.0 4.0 0.00 0.00 0.00 68 1015.0
20260505061234 62 230 1.0 2.0 0.00 0.00 0.00 68 1015.0
20260505060731 62 261 0.0 0.0 0.00 0.00 0.00 67 1015.0
20260505060231 62 287 2.0 4.0 0.00 0.00 0.00 67 1015.0
20260505055731 63 247 2.0 3.0 0.00 0.00 0.00 67 1015.0
20260505055231 63 262 1.0 2.0 0.00 0.00 0.00 66 1015.0
20260505054731 63 308 2.0 6.0 0.00 0.00 0.00 66 1015.0
20260505054233 63 269 2.0 4.0 0.00 0.00 0.00 65 1015.0
20260505053732 63 280 2.0 3.0 0.00 0.00 0.00 65 1015.0
20260505053232 64 40 2.0 4.0 0.00 0.00 0.00 65 1015.0
20260505052732 64 44 2.0 3.0 0.00 0.00 0.00 64 1015.0
20260505052231 64 43 2.0 3.0 0.00 0.00 0.00 65 1015.0
20260505051731 64 40 2.0 3.0 0.00 0.00 0.00 64 1015.0
20260505051232 64 40 4.0 8.0 0.00 0.00 0.00 64 1015.0
20260505050732 64 7 3.0 5.0 0.00 0.00 0.00 64 1015.0
20260505050231 64 14 2.0 4.0 0.00 0.00 0.00 63 1015.0
20260505041731 66 283 2.0 4.0 0.00 0.00 0.00 60 1015.0
20260505041232 66 281 2.0 4.0 0.00 0.00 0.00 60 1015.0
20260505040732 66 286 5.0 13.0 0.00 0.00 0.00 60 1015.0
20260505040231 66 267 3.0 4.0 0.00 0.00 0.00 59 1015.0
20260505035731 66 287 4.0 8.0 0.00 0.00 0.00 59 1015.0
20260505035231 66 274 4.0 7.0 0.00 0.00 0.00 58 1015.0
20260505034731 66 266 3.0 4.0 0.00 0.00 0.00 58 1015.0
20260505034233 67 267 4.0 8.0 0.00 0.00 0.00 57 1015.0
20260505033731 67 260 2.0 4.0 0.00 0.00 0.00 56 1015.0
20260505033231 67 273 2.0 4.0 0.00 0.00 0.00 55 1015.0
20260505032731 67 269 2.0 4.0 0.00 0.00 0.00 55 1015.0
20260505032232 68 268 3.0 7.0 0.00 0.00 0.00 55 1015.0
20260505031731 68 273 2.0 3.0 0.00 0.00 0.00 54 1015.0
20260505031231 68 285 4.0 6.0 0.00 0.00 0.00 53 1015.0
20260505030731 68 272 2.0 4.0 0.00 0.00 0.00 52 1015.0
20260505030232 68 271 4.0 7.0 0.00 0.00 0.00 51 1015.0
20260505025731 69 253 2.0 4.0 0.00 0.00 0.00 50 1015.0
20260505025231 69 275 3.0 7.0 0.00 0.00 0.00 49 1015.0
20260505024732 69 295 3.0 5.0 0.00 0.00 0.00 48 1015.0
20260505024231 69 307 4.0 5.0 0.00 0.00 0.00 47 1015.0
20260505023731 69 283 2.0 4.0 0.00 0.00 0.00 46 1015.0
20260505023231 69 288 1.0 3.0 0.00 0.00 0.00 46 1015.0
20260505022731 70 281 2.0 4.0 0.00 0.00 0.00 45 1015.0
20260505022234 70 280 2.0 4.0 0.00 0.00 0.00 44 1015.0
20260505021731 70 280 4.0 8.0 0.00 0.00 0.00 44 1015.0
20260505021231 70 280 2.0 3.0 0.00 0.00 0.00 44 1015.0
20260505020731 70 277 2.0 4.0 0.00 0.00 0.00 44 1015.0
20260505020231 70 288 3.0 7.0 0.00 0.00 0.00 43 1015.0
20260505015731 71 284 2.0 6.0 0.00 0.00 0.00 43 1015.0
20260505015231 71 261 3.0 4.0 0.00 0.00 0.00 43 1015.0
20260505014731 71 268 2.0 4.0 0.00 0.00 0.00 43 1015.0
20260505014231 71 278 4.0 8.0 0.00 0.00 0.00 42 1015.0
20260505013731 71 283 4.0 5.0 0.00 0.00 0.00 42 1014.0
20260505013232 71 274 4.0 7.0 0.00 0.00 0.00 42 1014.0
20260505012731 71 274 2.0 5.0 0.00 0.00 0.00 42 1014.0
20260505012232 72 293 3.0 5.0 0.00 0.00 0.00 41 1014.0
20260505011732 72 272 3.0 4.0 0.00 0.00 0.00 41 1014.0
20260505011232 72 272 1.0 2.0 0.00 0.00 0.00 41 1014.0
20260505010732 71 287 4.0 6.0 0.00 0.00 0.00 41 1014.0
20260505010232 71 279 3.0 5.0 0.00 0.00 0.00 41 1014.0
20260505005731 70 283 2.0 6.0 0.00 0.00 0.00 42 1014.0
20260505005232 69 301 1.0 3.0 0.00 0.00 0.00 44 1014.0
20260505004732 69 146 0.0 0.0 0.00 0.00 0.00 45 1014.0
20260505004232 70 0 0.0 0.0 0.00 0.00 0.00 44 1014.0
20260505003731 70 0 0.0 0.0 0.00 0.00 0.00 44 1014.0
20260505003232 71 0 0.0 0.0 0.00 0.00 0.00 43 1014.0
20260505002731 71 0 0.0 0.0 0.00 0.00 0.00 42 1014.0
20260505002231 72 0 0.0 0.0 0.00 0.00 0.00 41 1014.0
20260505001732 73 0 0.0 0.0 0.00 0.00 0.00 40 1013.0
20260505001232 73 0 0.0 0.0 0.00 0.00 0.00 39 1013.0
20260505000731 74 0 0.0 0.0 0.00 0.00 0.00 38 1013.0
20260505000233 74 0 0.0 0.0 0.00 0.00 0.00 38 1013.0
20260504235731 75 345 0.0 4.0 0.00 0.00 0.00 37 1013.0
20260504235233 76 293 2.0 2.0 0.00 0.00 0.00 36 1013.0
20260504234731 76 289 0.0 2.0 0.00 0.00 0.00 35 1013.0
20260504234232 77 303 2.0 2.0 0.00 0.00 0.00 35 1013.0
20260504233731 77 279 1.0 2.0 0.00 0.00 0.00 35 1013.0
20260504233231 77 271 2.0 3.0 0.00 0.00 0.00 34 1013.0
20260504232731 77 280 2.0 5.0 0.00 0.00 0.00 34 1013.0
20260504232231 78 262 2.0 4.0 0.00 0.00 0.00 34 1013.0
20260504231731 78 269 3.0 4.0 0.00 0.00 0.00 34 1013.0
20260504231232 78 241 1.0 2.0 0.00 0.00 0.00 34 1013.0
20260504230731 79 271 2.0 3.0 0.00 0.00 0.00 33 1013.0
20260504230233 79 250 1.0 3.0 0.00 0.00 0.00 34 1013.0
20260504225732 79 287 4.0 6.0 0.00 0.00 0.00 33 1013.0
20260504225231 79 248 2.0 5.0 0.00 0.00 0.00 33 1013.0
20260504224732 79 289 4.0 6.0 0.00 0.00 0.00 33 1013.0
20260504224232 79 280 8.0 12.0 0.00 0.00 0.00 33 1013.0
20260504223732 79 285 9.0 11.0 0.00 0.00 0.00 33 1013.0
20260504223232 79 285 6.0 8.0 0.00 0.00 0.00 33 1013.0
20260504222731 79 283 4.0 11.0 0.00 0.00 0.00 33 1013.0
20260504222232 79 269 4.0 9.0 0.00 0.00 0.00 33 1013.0
20260504221732 80 279 4.0 6.0 0.00 0.00 0.00 33 1013.0
20260504221231 80 274 2.0 5.0 0.00 0.00 0.00 33 1013.0
20260504220731 80 284 4.0 7.0 0.00 0.00 0.00 32 1013.0
20260504220231 80 272 4.0 7.0 0.00 0.00 0.00 33 1013.0
20260504215733 80 272 4.0 7.0 0.00 0.00 0.00 32 1013.0
20260504215232 80 266 4.0 6.0 0.00 0.00 0.00 33 1013.0
20260504214732 80 275 6.0 9.0 0.00 0.00 0.00 32 1013.0
20260504214232 80 312 2.0 4.0 0.00 0.00 0.00 32 1013.0
20260504213732 80 280 6.0 11.0 0.00 0.00 0.00 31 1013.0
20260504213232 80 285 4.0 8.0 0.00 0.00 0.00 32 1013.0
20260504212731 80 288 3.0 4.0 0.00 0.00 0.00 32 1013.0
20260504212232 80 268 3.0 10.0 0.00 0.00 0.00 32 1013.0
20260504211731 81 277 5.0 11.0 0.00 0.00 0.00 32 1013.0
20260504211232 81 287 3.0 6.0 0.00 0.00 0.00 31 1013.0
20260504210731 81 279 6.0 9.0 0.00 0.00 0.00 30 1013.0
20260504210233 81 272 4.0 7.0 0.00 0.00 0.00 31 1013.0
20260504205731 82 289 3.0 5.0 0.00 0.00 0.00 31 1013.0
20260504205231 83 258 3.0 6.0 0.00 0.00 0.00 30 1013.0
20260504204732 83 284 3.0 6.0 0.00 0.00 0.00 30 1013.0
20260504204232 82 268 4.0 6.0 0.00 0.00 0.00 29 1013.0
20260504203731 81 284 3.0 7.0 0.00 0.00 0.00 30 1013.0
20260504203231 81 283 6.0 9.0 0.00 0.00 0.00 30 1014.0
20260504202732 81 282 3.0 5.0 0.00 0.00 0.00 30 1014.0
20260504202231 81 260 3.0 8.0 0.00 0.00 0.00 30 1014.0
20260504201731 82 284 8.0 13.0 0.00 0.00 0.00 30 1014.0
20260504201233 82 278 4.0 7.0 0.00 0.00 0.00 29 1014.0
20260504200732 81 278 2.0 4.0 0.00 0.00 0.00 29 1014.0
20260504200231 80 265 3.0 4.0 0.00 0.00 0.00 31 1014.0
20260504195732 81 281 4.0 7.0 0.00 0.00 0.00 30 1014.0
20260504195231 80 248 2.0 5.0 0.00 0.00 0.00 30 1014.0
20260504194733 80 267 4.0 8.0 0.00 0.00 0.00 31 1014.0
20260504194231 80 265 5.0 11.0 0.00 0.00 0.00 30 1014.0
20260504193733 80 294 4.0 9.0 0.00 0.00 0.00 30 1014.0
20260504193232 79 277 6.0 9.0 0.00 0.00 0.00 30 1014.0
20260504192734 80 281 3.0 8.0 0.00 0.00 0.00 30 1014.0
20260504192233 80 298 5.0 9.0 0.00 0.00 0.00 30 1014.0
20260504191731 80 275 6.0 9.0 0.00 0.00 0.00 30 1014.0
20260504191232 80 269 2.0 6.0 0.00 0.00 0.00 29 1014.0
20260504190731 80 277 6.0 8.0 0.00 0.00 0.00 29 1014.0
20260504190232 80 284 1.0 4.0 0.00 0.00 0.00 29 1015.0
20260504185731 79 300 3.0 7.0 0.00 0.00 0.00 30 1014.0
20260504185231 79 297 5.0 9.0 0.00 0.00 0.00 31 1014.0
20260504184734 79 284 2.0 4.0 0.00 0.00 0.00 30 1014.0
20260504184232 79 297 4.0 6.0 0.00 0.00 0.00 30 1014.0
20260504183732 79 175 2.0 5.0 0.00 0.00 0.00 30 1015.0
20260504183232 79 287 4.0 6.0 0.00 0.00 0.00 30 1015.0
20260504182732 79 284 2.0 7.0 0.00 0.00 0.00 30 1015.0
20260504182234 79 279 4.0 8.0 0.00 0.00 0.00 30 1015.0
20260504181731 79 294 6.0 9.0 0.00 0.00 0.00 30 1015.0
20260504181232 79 215 3.0 5.0 0.00 0.00 0.00 31 1015.0
20260504180734 79 236 5.0 7.0 0.00 0.00 0.00 30 1015.0
20260504180232 78 41 1.0 3.0 0.00 0.00 0.00 31 1015.0
20260504175731 77 315 2.0 6.0 0.00 0.00 0.00 32 1015.0
20260504175233 78 304 4.0 9.0 0.00 0.00 0.00 32 1015.0
20260504174732 79 281 7.0 11.0 0.00 0.00 0.00 31 1015.0
20260504174231 78 289 1.0 3.0 0.00 0.00 0.00 32 1015.0
20260504173734 78 282 3.0 7.0 0.00 0.00 0.00 31 1015.0
20260504173232 77 286 2.0 4.0 0.00 0.00 0.00 31 1015.0
20260504172733 76 295 4.0 6.0 0.00 0.00 0.00 30 1015.0
20260504172233 76 275 9.0 14.0 0.00 0.00 0.00 31 1015.0
20260504171734 77 263 4.0 6.0 0.00 0.00 0.00 31 1015.0
20260504171233 78 292 5.0 8.0 0.00 0.00 0.00 29 1016.0
20260504170741 77 263 5.0 9.0 0.00 0.00 0.00 30 1016.0
20260504170232 76 297 4.0 6.0 0.00 0.00 0.00 31 1016.0
20260504160233 75 231 3.0 4.0 0.00 0.00 0.00 40 1017.0
20260504150732 69 272 7.0 9.0 0.00 0.00 0.00 48 1017.0
20260504150232 70 273 5.0 7.0 0.00 0.00 0.00 49 1017.0
20260504141232 67 246 1.0 6.0 0.00 0.00 0.00 53 1017.0
20260504140733 66 258 1.0 3.0 0.00 0.00 0.00 53 1017.0
20260504140232 65 234 2.0 4.0 0.00 0.00 0.00 55 1017.0
20260504130734 59 278 4.0 7.0 0.00 0.00 0.00 64 1017.0
20260504130234 59 38 2.0 3.0 0.00 0.00 0.00 64 1017.0
20260504120232 53 0 0.0 0.0 0.00 0.00 0.00 73 1018.0
20260504110232 43 0 0.0 0.0 0.00 0.00 0.00 89 1018.0
20260504100231 43 256 0.0 1.0 0.00 0.00 0.00 88 1017.0